When you browse on this site, cookies collect data to enhance your experience and personalize the content and advertising you see.
Visit our Privacy Policy to learn more. By continuing to use the site, you agree to this use of cookies and data.
  • Em Portugal
  • Lista de países
  • Para 7 dias
  • Temperatura da água
  • Mapa do tempo
  • Widgets de tempo
  • user-avatar
    Iniciar Sessão

    Previsão horária em Lloret de Mar

    Hoje, 12 Novembro, Terça-feira

    Tempo Temperatura Precipitação Vento Pressão Humidade
    00:00 +6°C° 0 mm 7 m/s 756 mmHg 63%
    01:00 +6°C° 0 mm 7 m/s 756 mmHg 63%
    02:00 +6°C° 0 mm 7 m/s 755 mmHg 64%
    03:00 +5°C° 0 mm 7 m/s 755 mmHg 64%
    04:00 +5°C° 0 mm 6 m/s 755 mmHg 64%
    05:00 +5°C° 0 mm 6 m/s 755 mmHg 63%
    06:00 +5°C° 0 mm 6 m/s 755 mmHg 62%
    07:00 +8°C° 0 mm 6 m/s 755 mmHg 59%
    08:00 +9°C° 0 mm 5 m/s 755 mmHg 55%
    09:00 +12°C° 0 mm 5 m/s 754 mmHg 51%
    10:00 +13°C° 0 mm 4 m/s 754 mmHg 48%
    11:00 +14°C° 0 mm 4 m/s 754 mmHg 45%
    12:00 +17°C° 0 mm 3 m/s 754 mmHg 40%
    13:00 +16°C° 0 mm 3 m/s 753 mmHg 45%
    14:00 +16°C° 0 mm 3 m/s 752 mmHg 49%
    15:00 +14°C° 0 mm 3 m/s 752 mmHg 54%
    16:00 +13°C° 0 mm 3 m/s 752 mmHg 59%
    17:00 +12°C° 0 mm 2 m/s 752 mmHg 65%
    18:00 +9°C° 0 mm 2 m/s 753 mmHg 71%
    19:00 +9°C° 0 mm 2 m/s 752 mmHg 70%
    20:00 +9°C° 0 mm 2 m/s 752 mmHg 69%
    21:00 +9°C° 0 mm 1 m/s 752 mmHg 69%
    22:00 +9°C° 0 mm 1 m/s 752 mmHg 69%
    23:00 +8°C° 0 mm 2 m/s 752 mmHg 69%

    Amanhã, 13 Novembro, Quarta-feira

    Tempo Temperatura Precipitação Vento Pressão Humidade
    00:00 +8°C° 0 mm 2 m/s 752 mmHg 68%
    01:00 +8°C° 0 mm 2 m/s 751 mmHg 68%
    02:00 +8°C° 0 mm 2 m/s 751 mmHg 68%
    03:00 +8°C° 0 mm 2 m/s 751 mmHg 68%
    04:00 +8°C° 0 mm 3 m/s 751 mmHg 68%
    05:00 +9°C° 0 mm 3 m/s 750 mmHg 67%
    06:00 +8°C° 0 mm 4 m/s 750 mmHg 67%
    07:00 +10°C° 0.1 mm 4 m/s 751 mmHg 68%
    08:00 +11°C° 0.1 mm 4 m/s 751 mmHg 68%
    09:00 +11°C° 0.1 mm 4 m/s 751 mmHg 69%
    10:00 +12°C° 0 mm 4 m/s 751 mmHg 67%
    11:00 +13°C° 0 mm 4 m/s 751 mmHg 64%
    12:00 +14°C° 0 mm 4 m/s 751 mmHg 62%
    13:00 +14°C° 0 mm 4 m/s 751 mmHg 61%
    14:00 +14°C° 0 mm 4 m/s 752 mmHg 60%
    15:00 +16°C° 0 mm 3 m/s 752 mmHg 58%
    16:00 +13°C° 0 mm 3 m/s 752 mmHg 66%
    17:00 +11°C° 0 mm 3 m/s 753 mmHg 74%
    18:00 +10°C° 0 mm 4 m/s 753 mmHg 82%
    19:00 +9°C° 0 mm 3 m/s 753 mmHg 83%
    20:00 +9°C° 0 mm 3 m/s 753 mmHg 84%
    21:00 +9°C° 0 mm 3 m/s 753 mmHg 85%
    22:00 +9°C° 0 mm 2 m/s 753 mmHg 84%
    23:00 +9°C° 0 mm 2 m/s 753 mmHg 84%

    Depois de amanhã, 14 Novembro, Quinta-feira

    Tempo Temperatura Precipitação Vento Pressão Humidade
    00:00 +9°C° 0 mm 2 m/s 753 mmHg 83%
    01:00 +9°C° 0 mm 3 m/s 752 mmHg 85%
    02:00 +8°C° 0 mm 4 m/s 751 mmHg 88%
    03:00 +8°C° 0 mm 5 m/s 750 mmHg 90%
    04:00 +8°C° 0.1 mm 5 m/s 750 mmHg 88%
    05:00 +8°C° 0.1 mm 6 m/s 749 mmHg 87%
    06:00 +8°C° 0.1 mm 6 m/s 748 mmHg 85%
    07:00 +9°C° 0.1 mm 5 m/s 748 mmHg 80%
    08:00 +10°C° 0.1 mm 5 m/s 748 mmHg 75%
    09:00 +12°C° 0.1 mm 5 m/s 748 mmHg 69%
    10:00 +12°C° 0 mm 4 m/s 747 mmHg 69%
    11:00 +12°C° 0 mm 4 m/s 747 mmHg 69%
    12:00 +12°C° 0 mm 4 m/s 747 mmHg 69%
    13:00 +10°C° 2.4 mm 4 m/s 746 mmHg 77%
    14:00 +8°C° 2.4 mm 4 m/s 746 mmHg 85%
    15:00 +6°C° 2.4 mm 4 m/s 745 mmHg 93%
    16:00 +6°C° 1.3 mm 4 m/s 746 mmHg 93%
    17:00 +5°C° 1.3 mm 3 m/s 746 mmHg 92%
    18:00 +5°C° 1.3 mm 3 m/s 746 mmHg 92%
    19:00 +5°C° 0.2 mm 3 m/s 747 mmHg 92%
    20:00 +4°C° 0.2 mm 3 m/s 747 mmHg 93%
    21:00 +4°C° 0.2 mm 3 m/s 748 mmHg 93%
    22:00 +4°C° 0 mm 3 m/s 748 mmHg 92%
    23:00 +5°C° 0 mm 2 m/s 748 mmHg 91%

    15 Novembro, Sexta-feira

    Tempo Temperatura Precipitação Vento Pressão Humidade
    00:00 +5°C° 0 mm 2 m/s 749 mmHg 90%
    01:00 +5°C° 0 mm 2 m/s 749 mmHg 90%
    02:00 +5°C° 0 mm 2 m/s 749 mmHg 89%
    03:00 +5°C° 0 mm 2 m/s 749 mmHg 89%
    04:00 +4°C° 0.1 mm 3 m/s 749 mmHg 88%
    05:00 +4°C° 0.1 mm 3 m/s 749 mmHg 87%
    06:00 +5°C° 0.1 mm 3 m/s 749 mmHg 86%
    07:00 +5°C° 0.1 mm 3 m/s 749 mmHg 82%
    08:00 +7°C° 0.1 mm 3 m/s 750 mmHg 78%
    09:00 +8°C° 0.1 mm 3 m/s 750 mmHg 75%
    10:00 +9°C° 0 mm 2 m/s 750 mmHg 68%
    11:00 +10°C° 0 mm 2 m/s 751 mmHg 62%
    12:00 +12°C° 0 mm 1 m/s 751 mmHg 56%
    13:00 +12°C° 0 mm 2 m/s 751 mmHg 57%
    14:00 +12°C° 0 mm 2 m/s 751 mmHg 58%
    15:00 +11°C° 0 mm 3 m/s 751 mmHg 59%
    16:00 +9°C° 0 mm 3 m/s 751 mmHg 64%
    17:00 +7°C° 0 mm 4 m/s 751 mmHg 70%
    18:00 +6°C° 0 mm 4 m/s 752 mmHg 75%
    19:00 +6°C° 0 mm 4 m/s 752 mmHg 76%
    20:00 +5°C° 0 mm 5 m/s 752 mmHg 76%
    21:00 +5°C° 0 mm 5 m/s 753 mmHg 76%
    22:00 +3°C° 0 mm 5 m/s 753 mmHg 77%
    23:00 +3°C° 0 mm 5 m/s 753 mmHg 78%

    16 Novembro, Sábado

    Tempo Temperatura Precipitação Vento Pressão Humidade
    00:00 +3°C° 0 mm 5 m/s 754 mmHg 80%
    01:00 +4°C° 0 mm 4 m/s 754 mmHg 79%
    02:00 +3°C° 0 mm 3 m/s 754 mmHg 79%
    03:00 +4°C° 0 mm 2 m/s 754 mmHg 78%
    04:00 +3°C° 0 mm 3 m/s 754 mmHg 78%
    05:00 +3°C° 0 mm 4 m/s 755 mmHg 79%
    06:00 +3°C° 0 mm 4 m/s 755 mmHg 79%
    07:00 +4°C° 0 mm 4 m/s 756 mmHg 73%
    08:00 +6°C° 0 mm 4 m/s 757 mmHg 67%
    09:00 +7°C° 0 mm 4 m/s 757 mmHg 61%
    10:00 +10°C° 0 mm 4 m/s 757 mmHg 56%
    11:00 +11°C° 0 mm 4 m/s 757 mmHg 51%
    12:00 +12°C° 0 mm 4 m/s 757 mmHg 47%
    13:00 +12°C° 0 mm 4 m/s 756 mmHg 48%
    14:00 +12°C° 0 mm 4 m/s 756 mmHg 50%
    15:00 +11°C° 0 mm 4 m/s 756 mmHg 51%
    16:00 +10°C° 0 mm 4 m/s 757 mmHg 58%
    17:00 +7°C° 0 mm 4 m/s 757 mmHg 65%
    18:00 +5°C° 0 mm 4 m/s 757 mmHg 72%
    19:00 +5°C° 0 mm 3 m/s 757 mmHg 74%
    20:00 +4°C° 0 mm 3 m/s 757 mmHg 75%
    21:00 +4°C° 0 mm 3 m/s 757 mmHg 77%
    22:00 +4°C° 0 mm 3 m/s 757 mmHg 77%
    23:00 +5°C° 0 mm 2 m/s 756 mmHg 76%

    17 Novembro, Domingo

    Tempo Temperatura Precipitação Vento Pressão Humidade
    00:00 +4°C° 0 mm 2 m/s 756 mmHg 75%
    01:00 +4°C° 0 mm 2 m/s 755 mmHg 71%
    02:00 +4°C° 0 mm 2 m/s 755 mmHg 68%
    03:00 +4°C° 0 mm 2 m/s 754 mmHg 64%
    04:00 +4°C° 0 mm 2 m/s 754 mmHg 58%
    05:00 +3°C° 0 mm 2 m/s 753 mmHg 53%
    06:00 +3°C° 0 mm 2 m/s 753 mmHg 47%
    07:00 +5°C° 0 mm 2 m/s 753 mmHg 43%
    08:00 +8°C° 0 mm 1 m/s 753 mmHg 39%
    09:00 +9°C° 0 mm 1 m/s 753 mmHg 35%
    10:00 +10°C° 0 mm 2 m/s 753 mmHg 33%
    11:00 +13°C° 0 mm 2 m/s 752 mmHg 31%
    12:00 +13°C° 0 mm 3 m/s 752 mmHg 30%
    13:00 +13°C° 0 mm 3 m/s 751 mmHg 33%
    14:00 +13°C° 0 mm 3 m/s 751 mmHg 37%
    15:00 +12°C° 0 mm 3 m/s 751 mmHg 40%
    16:00 +11°C° 0 mm 3 m/s 751 mmHg 43%
    17:00 +9°C° 0 mm 3 m/s 751 mmHg 45%
    18:00 +7°C° 0 mm 2 m/s 751 mmHg 48%
    19:00 +7°C° 0 mm 3 m/s 752 mmHg 48%
    20:00 +8°C° 0 mm 3 m/s 752 mmHg 48%
    21:00 +8°C° 0 mm 3 m/s 752 mmHg 48%
    22:00 +8°C° 0 mm 3 m/s 752 mmHg 53%
    23:00 +8°C° 0 mm 2 m/s 752 mmHg 58%
    Mostrar mais